TimeHST,TemperatureF,Dew PointF,Humidity,Sea Level PressureIn,VisibilityMPH,Wind Direction,Wind SpeedMPH,Gust SpeedMPH,PrecipitationIn,Events,Conditions,WindDirDegrees,DateUTC
12:20 AM,71.6,69.8,94,30.03,10.0,West,9.2,-,N/A,,Partly Cloudy,270,2013-10-12 10:20:00
12:53 AM,71.1,69.1,93,30.02,10.0,West,6.9,-,N/A,,Clear,280,2013-10-12 10:53:00
1:53 AM,71.1,68.0,90,30.01,10.0,West,8.1,-,N/A,,Clear,280,2013-10-12 11:53:00
2:53 AM,71.1,68.0,90,29.99,10.0,West,6.9,-,N/A,,Clear,280,2013-10-12 12:53:00
3:53 AM,71.1,66.9,87,29.98,10.0,West,8.1,-,N/A,,Clear,280,2013-10-12 13:53:00
4:53 AM,71.1,68.0,90,29.98,10.0,West,6.9,-,N/A,,Partly Cloudy,280,2013-10-12 14:53:00
5:53 AM,71.1,68.0,90,29.99,10.0,West,6.9,-,N/A,,Scattered Clouds,280,2013-10-12 15:53:00
6:53 AM,71.1,66.9,87,29.99,10.0,West,8.1,-,N/A,,Clear,280,2013-10-12 16:53:00
7:53 AM,75.0,70.0,84,30.02,10.0,West,6.9,-,N/A,,Clear,280,2013-10-12 17:53:00
8:53 AM,80.1,73.0,79,30.03,10.0,North,5.8,-,N/A,,Clear,360,2013-10-12 18:53:00
9:53 AM,81.0,72.0,74,30.03,10.0,NNE,6.9,-,N/A,,Clear,20,2013-10-12 19:53:00
10:53 AM,81.0,73.0,77,30.02,10.0,NE,8.1,-,N/A,,Clear,50,2013-10-12 20:53:00
11:53 AM,81.0,73.0,77,30.01,10.0,NE,8.1,-,N/A,,Clear,40,2013-10-12 21:53:00
12:53 PM,82.0,73.0,74,29.98,-9999.0,NE,6.9,-,N/A,,Clear,50,2013-10-12 22:53:00
1:53 PM,81.0,73.0,77,29.96,10.0,East,6.9,-,N/A,,Partly Cloudy,80,2013-10-12 23:53:00
2:53 PM,81.0,73.0,77,29.96,10.0,NE,8.1,-,N/A,,Clear,50,2013-10-13 00:53:00
3:53 PM,80.1,72.0,76,29.96,10.0,ENE,3.5,-,N/A,,Mostly Cloudy,70,2013-10-13 01:53:00
4:53 PM,80.1,72.0,76,29.97,10.0,Calm,Calm,-,N/A,,Overcast,0,2013-10-13 02:53:00
5:53 PM,79.0,72.0,79,29.98,10.0,NNE,3.5,-,N/A,,Mostly Cloudy,30,2013-10-13 03:53:00
6:53 PM,78.1,72.0,81,29.99,10.0,NNE,4.6,-,N/A,,Scattered Clouds,30,2013-10-13 04:53:00
7:53 PM,77.0,71.1,82,30.01,10.0,NNW,3.5,-,N/A,,Partly Cloudy,330,2013-10-13 05:53:00
8:53 PM,75.9,71.1,85,30.03,10.0,WNW,3.5,-,N/A,,Partly Cloudy,290,2013-10-13 06:53:00
9:53 PM,73.9,71.1,91,30.03,-9999.0,WNW,5.8,-,N/A,,Partly Cloudy,290,2013-10-13 07:53:00
10:53 PM,73.0,70.0,90,30.02,10.0,WNW,6.9,-,N/A,,Partly Cloudy,290,2013-10-13 08:53:00
11:53 PM,73.0,69.1,87,30.01,10.0,WNW,6.9,-,N/A,,Clear,290,2013-10-13 09:53:00